Montreal/Mirabel, Ontario

4:33 PM EST on February 27, 2017 (GMT -0500)
Montreal International (Mirabel)

Weather History for CYMX - November, 2011

Change the Weather History Date:

Wednesday, November 9, 2011

  Actual Average Record
Temperature  
Mean Temperature 50 °F -  
Max Temperature 57 °F 39 °F 57 °F (2011)
Min Temperature 42 °F 26 °F 14 °F (2003)
Degree Days  
Heating Degree Days 14    
Moisture  
Dew Point 38 °F    
Average Humidity 65    
Maximum Humidity 87    
Minimum Humidity 54    
Precipitation  
Precipitation 0.00 in - - ()
Sea Level Pressure  
Sea Level Pressure 30.05 in    
Wind  
Wind Speed 5 mph ()    
Max Wind Speed 10 mph    
Max Gust Speed -    
Visibility 16.7 miles    
Events      
Averages and records for this station are not official NWS values.
T = Trace of Precipitation, MM = Missing Value Source: Averaged Metar Reports

Daily Weather History Graph

Daily Weather History Graph

Search for Another Location

Airport or City:

Trip Planner

Search our weather history database for the weather conditions in past years. The results will help you decide how hot, cold, wet, or windy it might be!

Date:

Astronomy

Nov. 09, 2011 Rise Set
Actual Time 6:46 AM EST 4:32 PM EST
Civil Twilight 6:15 AM EST 5:04 PM EST
Nautical Twilight 5:39 AM EST 5:39 PM EST
Astronomical Twilight 5:04 AM EST 6:14 PM EST
Moon 3:42 PM EST (11/9) 5:39 AM EST (11/9)
Length of Visible Light 10h 48m
Length of Day
9h 45m
Waxing Gibbous, 99% of the Moon is Illuminated
Nov 9
Waxing Gibbous
Nov 10
Full
Nov 18
Last Quarter
Nov 25
New
Dec 2
First Quarter

Hourly Weather History & Observations

Time (EST) Temp. Windchill Dew Point Humidity Pressure Visibility Wind Dir Wind Speed Gust Speed Precip Events Conditions
12:00 AM 50.0 °F - 35.6 °F 58% 30.19 in 25.0 mi ENE 3.5 mph - N/A   Overcast
1:00 AM 50.0 °F - 37.4 °F 62% 30.18 in 25.0 mi NE 2.3 mph - N/A   Overcast
2:00 AM 50.0 °F - 33.8 °F 54% 30.17 in 25.0 mi NE 4.6 mph - N/A   Overcast
3:00 AM 50.0 °F - 33.8 °F 54% 30.16 in 25.0 mi NE 5.8 mph - N/A   Overcast
4:00 AM 50.0 °F - 33.8 °F 54% 30.15 in 25.0 mi NE 4.6 mph - N/A   Mostly Cloudy
5:00 AM 48.2 °F - 33.8 °F 58% 30.15 in 25.0 mi NE 8.1 mph - N/A   Mostly Cloudy
6:00 AM 46.4 °F 43.5 °F 35.6 °F 66% 30.15 in 25.0 mi NE 5.8 mph - N/A   Scattered Clouds
7:00 AM 44.6 °F - 35.6 °F 71% 30.15 in 40.0 mi NE 2.3 mph - N/A   Scattered Clouds
8:00 AM 44.6 °F 42.2 °F 35.6 °F 71% 30.15 in 40.0 mi ENE 4.6 mph - N/A   Partly Cloudy
9:00 AM 46.4 °F 41.9 °F 35.6 °F 66% 30.14 in 40.0 mi NE 9.2 mph - N/A   Scattered Clouds
10:00 AM 50.0 °F - 37.4 °F 62% 30.13 in 25.0 mi NE 6.9 mph - N/A   Mostly Cloudy
11:00 AM 51.8 °F - 37.4 °F 58% 30.10 in 20.0 mi NE 8.1 mph - N/A   Mostly Cloudy
12:00 PM 53.6 °F - 39.2 °F 58% 30.07 in 20.0 mi NNE 8.1 mph - N/A   Mostly Cloudy
1:00 PM 55.4 °F - 41.0 °F 58% 30.04 in 20.0 mi East 10.4 mph - N/A   Scattered Clouds
2:00 PM 57.2 °F - 42.8 °F 59% 30.00 in 15.0 mi NE 8.1 mph - N/A   Mostly Cloudy
3:00 PM 55.4 °F - 42.8 °F 63% 29.98 in 15.0 mi NE 6.9 mph - N/A   Mostly Cloudy
4:00 PM 53.6 °F - 41.0 °F 62% 29.96 in 15.0 mi NE 6.9 mph - N/A   Mostly Cloudy
5:00 PM 51.8 °F - 42.8 °F 71% 29.96 in 15.0 mi NE 8.1 mph - N/A   Overcast
7:00 PM 50.0 °F - 41.0 °F 71% 29.92 in 15.0 mi NE 8.1 mph - N/A   Overcast
8:00 PM 48.2 °F - 41.0 °F 76% 29.90 in 15.0 mi NE 5.8 mph - N/A   Overcast
9:00 PM 46.4 °F 43.5 °F 39.2 °F 76% 29.88 in 25.0 mi NE 5.8 mph - N/A   Mostly Cloudy
10:00 PM 44.6 °F 42.2 °F 39.2 °F 81% 29.85 in 25.0 mi NE 4.6 mph - N/A   Mostly Cloudy
11:00 PM 42.8 °F 40.1 °F 39.2 °F 87% 29.85 in 25.0 mi NNE 4.6 mph - N/A   Mostly Cloudy